Weather History for KASX - February, 2013

Change the Weather History Date:

Tuesday, February 19, 2013

  Actual Average Record
Temperature  
Mean Temperature 9 °F -  
Max Temperature 17 °F 31 °F 53 °F (1981)
Min Temperature 1 °F 10 °F -25 °F (1966)
Degree Days  
Heating Degree Days 56    
Moisture  
Dew Point -1 °F    
Average Humidity 70    
Maximum Humidity 80    
Minimum Humidity 61    
Precipitation  
Precipitation 0.00 in - - ()
Sea Level Pressure  
Sea Level Pressure 29.95 in    
Wind  
Wind Speed 13 mph (NW)    
Max Wind Speed 18 mph    
Max Gust Speed 26 mph    
Visibility 5 miles    
Events Snow    
Averages and records for this station are not official NWS values.
T = Trace of Precipitation, MM = Missing Value Source: NWS Daily Summary

Daily Weather History Graph

Daily Weather History Graph

Search for Another Location

Airport or City:

Trip Planner

Search our weather history database for the weather conditions in past years. The results will help you decide how hot, cold, wet, or windy it might be!

Date:

Astronomy

Feb. 19, 2013 Rise Set
Actual Time 7:00 AM CST 5:35 PM CST
Civil Twilight 6:29 AM CST 6:06 PM CST
Nautical Twilight 5:54 AM CST 6:41 PM CST
Astronomical Twilight 5:19 AM CST 7:16 PM CST
Moon 11:55 AM CST (2/19) 2:43 AM CST (2/19)
Length of Visible Light 11h 36m
Length of Day
10h 35m
Waxing Gibbous, 67% of the Moon is Illuminated
Feb 19
Waxing Gibbous
Feb 25
Full
Mar 4
Last Quarter
Mar 11
New
Mar 19
First Quarter

Hourly Weather History & Observations

Time (CST) Temp. Windchill Dew Point Humidity Pressure Visibility Wind Dir Wind Speed Gust Speed Precip Events Conditions
12:53 AM 17.1 °F 3.0 °F 10.0 °F 74% 29.70 in 4.0 mi NW 13.8 mph - 0.00 in Snow Light Snow
1:18 AM 15.8 °F 3.4 °F 8.6 °F 73% 29.67 in 2.5 mi NW 10.4 mph - 0.00 in Snow Light Snow
1:41 AM 15.8 °F 1.4 °F 8.6 °F 73% 29.68 in 2.0 mi NW 13.8 mph - 0.00 in Snow Light Snow
1:53 AM 14.0 °F 0.5 °F 9.0 °F 80% 29.74 in 2.0 mi NNW 11.5 mph - 0.00 in Snow Light Snow
2:12 AM 14.0 °F -0.8 °F 6.8 °F 73% 29.70 in 6.0 mi NW 13.8 mph - 0.00 in Snow Light Snow
2:53 AM 12.0 °F -4.0 °F 5.0 °F 73% 29.75 in 5.0 mi NW 15.0 mph 23.0 mph 0.00 in Snow Light Snow
3:53 AM 9.0 °F -9.5 °F 1.9 °F 73% 29.78 in 4.0 mi NNW 18.4 mph - 0.00 in Snow Light Snow
4:11 AM 8.6 °F -7.7 °F 1.4 °F 73% 29.74 in 5.0 mi NNW 13.8 mph 24.2 mph 0.00 in Snow Light Snow
4:53 AM 8.1 °F -9.0 °F -0.0 °F 70% 29.81 in 5.0 mi NW 15.0 mph 21.9 mph 0.00 in Snow Light Snow
5:47 AM 6.8 °F -11.8 °F -0.4 °F 72% 29.78 in 2.5 mi NW 17.3 mph 24.2 mph 0.00 in Snow Light Snow
5:53 AM 5.0 °F -11.6 °F -0.9 °F 76% 29.84 in 2.5 mi NW 12.7 mph 23.0 mph 0.00 in Snow Light Snow
6:03 AM 5.0 °F -11.6 °F -2.2 °F 72% 29.80 in 3.0 mi NW 12.7 mph 21.9 mph 0.00 in Snow Light Snow
6:12 AM 5.0 °F -10.0 °F -2.2 °F 72% 29.80 in 4.0 mi NW 10.4 mph - 0.00 in Snow Light Snow
6:53 AM 3.9 °F -13.7 °F -2.9 °F 73% 29.88 in 2.5 mi NW 13.8 mph 23.0 mph 0.00 in Snow Light Snow
7:24 AM 3.2 °F -13.9 °F -4.0 °F 72% 29.85 in 2.0 mi NW 12.7 mph 21.9 mph 0.00 in Snow Light Snow
7:45 AM 3.2 °F -13.9 °F -4.0 °F 72% 29.86 in 1.8 mi NW 12.7 mph - 0.00 in Snow Light Snow
7:53 AM 3.0 °F -15.5 °F -4.0 °F 73% 29.92 in 2.0 mi WNW 15.0 mph 19.6 mph 0.00 in Snow Light Snow
8:17 AM 1.4 °F -18.8 °F -5.8 °F 72% 29.87 in 1.8 mi WNW 17.3 mph 23.0 mph 0.00 in Snow Light Snow
8:37 AM 1.4 °F -15.3 °F -5.8 °F 72% 29.88 in 2.0 mi NW 11.5 mph 19.6 mph 0.00 in Snow Light Snow
8:45 AM 1.4 °F -17.6 °F -5.8 °F 72% 29.88 in 1.5 mi NW 15.0 mph 20.7 mph 0.00 in Snow Light Snow
8:53 AM 1.9 °F -16.9 °F -5.1 °F 72% 29.94 in 1.2 mi NW 15.0 mph 21.9 mph 0.00 in Snow Light Snow
9:08 AM 1.4 °F -16.9 °F -5.8 °F 72% 29.90 in 1.2 mi NW 13.8 mph 19.6 mph 0.00 in Snow Light Snow
9:47 AM 1.4 °F -18.8 °F -5.8 °F 72% 29.91 in 2.0 mi NW 17.3 mph 23.0 mph 0.00 in Snow Light Snow
9:53 AM 1.9 °F -18.1 °F -6.0 °F 69% 29.97 in 1.8 mi NW 17.3 mph 26.5 mph 0.00 in Snow Light Snow
10:22 AM 1.4 °F -16.1 °F -5.8 °F 72% 29.93 in 2.5 mi NW 12.7 mph 21.9 mph 0.00 in   Haze
10:29 AM 3.2 °F -13.1 °F -5.8 °F 66% 29.93 in 4.0 mi NW 11.5 mph 24.2 mph 0.00 in   Haze
11:07 AM 5.0 °F -11.6 °F -4.0 °F 66% 29.95 in 2.0 mi NW 12.7 mph 20.7 mph N/A   Haze
11:37 AM 5.0 °F -13.0 °F -4.0 °F 66% 29.96 in 3.0 mi WNW 15.0 mph 20.7 mph N/A   Haze
12:53 PM 6.1 °F -9.5 °F -2.9 °F 67% 30.04 in 5.0 mi NW 11.5 mph 23.0 mph N/A   Haze
1:53 PM 7.0 °F -11.6 °F -2.0 °F 67% 30.06 in 5.0 mi WNW 17.3 mph 23.0 mph N/A   Haze
2:53 PM 8.1 °F -7.7 °F -2.0 °F 64% 30.09 in 10.0 mi NW 12.7 mph - N/A   Overcast
3:41 PM 8.6 °F -6.3 °F -0.4 °F 67% 30.05 in 5.0 mi WNW 11.5 mph 21.9 mph N/A   Haze
3:53 PM 9.0 °F -7.3 °F -2.0 °F 61% 30.13 in 10.0 mi NW 13.8 mph 20.7 mph N/A   Overcast
4:53 PM 10.0 °F -6.5 °F -0.9 °F 61% 30.16 in 10.0 mi NNW 15.0 mph 20.7 mph N/A   Overcast
6:53 PM 9.0 °F -7.9 °F -0.9 °F 64% 30.23 in 10.0 mi NNW 15.0 mph - N/A   Overcast
7:53 PM 9.0 °F -5.1 °F -0.0 °F 67% 30.25 in 10.0 mi NW 10.4 mph - N/A   Overcast
8:06 PM 8.6 °F -5.5 °F -0.4 °F 67% 30.19 in 10.0 mi NW 10.4 mph - N/A   Overcast
8:53 PM 8.1 °F -6.2 °F 1.0 °F 73% 30.27 in 10.0 mi NNW 10.4 mph - N/A   Overcast
9:53 PM 9.0 °F 0.6 °F 1.0 °F 70% 30.30 in 10.0 mi WNW 4.6 mph - N/A   Overcast
10:53 PM 9.0 °F -0.9 °F 1.0 °F 70% 30.31 in 10.0 mi NNW 5.8 mph - N/A   Overcast
11:53 PM 9.0 °F -4.2 °F 1.9 °F 73% 30.33 in 10.0 mi North 9.2 mph - N/A   Overcast